Regional Weather Roundup
Issued by NWS

Home | Current Version | Previous Version | Graphics & Text | Print | Product List | Glossary Off
Versions: 1 2 3 4 5 6 7 8 9 10 11 12 13 14 15 16 17 18 19 20 21 22 23 24 25 26 27 28 29 30 31 32 33 34 35 36 37 38 39 40 41 42 43 44 45 46 47 48 49 50

895
ASUS43 KDMX 232306
RWRIA

WEATHER ROUNDUP FOR IOWA
NATIONAL WEATHER SERVICE DES MOINES IA
500 PM CST THU NOV 23 2017

NOTE: "FAIR" INDICATES FEW OR NO CLOUDS BELOW 12,000 FEET WITH NO
SIGNIFICANT WEATHER AND/OR OBSTRUCTIONS TO VISIBILITY.

* - THESE STATIONS ARE NOT NWS STATIONS...THUS NOT UNDER NWS
QUALITY CONTROL.  THEY ALSO DO NOT REPORT WEATHER SUCH
AS PRECIPITATION OR FOG.

IAZ001>003-012>014-020>022-031>034-043>046-240000-
   NORTHWEST IOWA

CITY           SKY/WX    TMP DP  RH WIND       PRES   REMARKS
CARROLL *      CLEAR     52  34  50 S8        29.85F
CHEROKEE *     CLOUDY    51  34  51 S7        29.81F
DENISON *      CLEAR     54  36  50 S7        29.85F
LE MARS *      CLEAR     54  37  54 S12       29.79F
ORANGE CITY *  CLOUDY    52  37  58 S6        29.80S
SHELDON *      CLOUDY    52  34  50 S9        29.77F
SIOUX CITY     CLOUDY    57  38  48 SE8       29.80F
SPENCER        CLOUDY    47  31  53 S8        29.80F
STORM LAKE *   CLOUDY    52  34  50 S12       29.81F
$$

IAZ055>058-069>071-079>083-090>094-240000-
   SOUTHWEST IOWA

CITY           SKY/WX    TMP DP  RH WIND       PRES   REMARKS
ATLANTIC *     CLEAR     52  36  54 S6        29.88S
AUDUBON *      CLEAR     52  36  54 CALM      29.88S
CLARINDA *     CLEAR     55  36  47 S5          N/A
COUNCIL BLFS * CLEAR     55  39  54 S7        29.87S
CRESTON *      CLEAR     55  34  44 S7        29.90F
HARLAN  *      CLEAR     54  36  50 S7        29.90S
LAMONI         CLEAR     56  34  43 S5        29.91F
RED OAK *      CLEAR     54  37  54 S3        29.89F
SHENANDOAH *   CLEAR     57  37  47 S6        29.90S
$$

IAZ047>049-059>061-072>074-084-240000-
   CENTRAL IOWA

CITY           SKY/WX    TMP DP  RH WIND       PRES   REMARKS
AMES           CLOUDY    46  33  60 S7        29.89S
ANKENY *       CLEAR     48  32  53 SW5       29.91S
BOONE *        CLOUDY    48  30  49 S7        29.87S
CHARITON *     CLEAR     52  32  46 S5        29.90F
DES MOINES     PTCLDY    50  32  50 S6        29.90F
GRINNELL*      CLEAR     47  30  51 SW5       29.91S
KNOXVILLE *    CLEAR     50  30  46 CALM      29.89F
MARSHALLTOWN   CLOUDY    46  30  53 SW6       29.88S
NEWTON *       CLEAR     46  30  53 S5        29.90S
PELLA *        CLEAR     50  30  46 CALM      29.92S
PERRY *          N/A     48  30  49 SE8       29.87F
$$

IAZ004>006-015-016-023>025-035-036-240000-
   NORTH CENTRAL IOWA

CITY           SKY/WX    TMP DP  RH WIND       PRES   REMARKS
ALGONA *       CLEAR     46  32  57 S12       29.82F
CLARION *      CLEAR     43  30  61 S9        29.84F
ESTHERVILLE    CLEAR     41  30  65 S10       29.79F
FORT DODGE *   CLEAR     50  32  50 S8        29.85F
MASON CITY     CLEAR     40  27  59 S6        29.86F
FOREST CITY *    N/A     39  30  70 S7        29.84F WCI  34
WEBSTER CITY * CLOUDY    45  30  57 S10       29.83F
IOWA FALLS *     N/A     46  32  58 S7        29.88F
$$

IAZ007>011-017>019-026>030-037>042-050>054-066-240000-
   NORTHEAST IOWA

CITY           SKY/WX    TMP DP  RH WIND       PRES   REMARKS
CEDAR RAPIDS   CLEAR     43  29  57 CALM      29.90S
CHARLES CITY * CLEAR     39  25  56 S7        29.87S WCI  34
CLINTON *      CLEAR     41  26  55 SW3       29.93R
DECORAH *      CLEAR     41  25  52 SW6       29.85F
DUBUQUE        CLEAR     40  26  57 CALM      29.90F
MONTICELLO *   CLEAR     41  27  56 S5        29.89F
OELWEIN *      CLEAR     37  27  65 S6        29.88F WCI  33
WATERLOO       CLEAR     40  26  57 S3        29.88F
$$

IAZ064-065-067-068-078-240000-
   EAST CENTRAL IOWA

CITY           SKY/WX    TMP DP  RH WIND       PRES   REMARKS
DAVENPORT      CLEAR     41  27  57 S3        29.94S
IOWA CITY      CLEAR     44  28  53 CALM      29.92F
MT. PLEASANT * CLEAR     46  29  51 CALM      29.93S
MUSCATINE *    CLEAR     46  28  49 CALM      29.93S
QUAD CITIES    CLEAR     40  26  57 CALM      29.93R
$$

IAZ062-063-075>077-085>089-095>099-240000-
   SOUTHEAST IOWA

CITY           SKY/WX    TMP DP  RH WIND       PRES   REMARKS
BURLINGTON     CLEAR     46  30  53 CALM      29.93S
FAIRFIELD *    CLOUDY    46  30  53 CALM      29.91F
FORT MADISON * CLEAR     48  30  49 CALM      29.94F
KEOKUK *       CLEAR     48  30  49 CALM      29.93S
OSKALOOSA *      N/A     48  31  50 CALM      29.91F
OTTUMWA        CLEAR     47  31  53 CALM      29.91F
WASHINGTON *   CLEAR     46  30  53 SW5       29.93S
$$

ABBREVIATIONS USED IN REMARKS
   TC - TEMPERATURES IN CELSIUS
  WCI - WIND CHILL INDEX
   HX - HEAT INDEX
  VSB - VISIBILITY
$$





USA.gov is the U.S. government's official web portal to all federal, state and local government web resources and services.